Location: Newark
(42.8481°N, 0.4872°E)
Time: 16:15:26
(UTC+00:00)

A-11 Canister half - Pass Details

Date: 27 October 2020
Orbit: 1525 x 1683 km, 47.3° (Epoch: 22 November)

Event Time Altitude Azimuth Distance (km) Brightness Sun altitude
Rises 18:44:35 0° 287° (WNW) 4,715 12.9 -20.3°
Reaches altitude 10° 18:47:40 10° 289° (WNW) 3,718 12.1 -20.9°
Maximum altitude 18:57:03 77° 16° (NNE) 1,564 8.9 -22.6°
Enters shadow 19:01:18 37° 95° (E) 2,195 9.2 -23.4°
Drops below altitude 10° 19:06:22 10° 102° (ESE) 3,699 - -24.3°
Sets 19:09:26 0° 104° (ESE) 4,690 - -24.9°
